Location: Fort Frances
(48.6170°N, 93.4170°W)
Time: 11:18:31
(UTC-06:00)

ISS - All Passes

Search period start: 20 December 2014 00:00
Search period end: 30 December 2014 00:00
Orbit: 404 x 415 km, 51.6° (Epoch: 20 December)

Date Brightness Start Highest point End Pass type
(mag) Time Alt. Az. Time Alt. Az. Time Alt. Az.
20 Dec - 14:28:26 10° SW 14:31:35 42° SSE 14:34:43 10° ENE daylight
20 Dec - 16:04:51 10° W 16:08:07 59° NNW 16:11:23 10° ENE daylight
20 Dec - 17:41:46 10° WNW 17:45:00 51° N 17:48:13 10° E visible
20 Dec - 19:18:25 10° WNW 19:21:40 62° SSW 19:24:54 10° SE visible
20 Dec - 20:56:15 10° WSW 20:57:43 13° SW 20:59:11 10° SSW night (unlit)
21 Dec - 13:38:06 10° SSW 13:40:56 27° SE 13:43:47 10° E daylight
21 Dec - 15:14:00 10° WSW 15:17:18 75° NNW 15:20:36 10° ENE daylight
21 Dec - 16:50:55 10° WNW 16:54:08 47° N 16:57:20 10° ENE visible
21 Dec - 18:27:37 10° WNW 18:30:55 90° SW 18:34:12 10° ESE visible
21 Dec - 20:04:40 10° W 20:07:09 20° SW 20:09:38 10° S visible
22 Dec - 12:48:04 10° S 12:50:18 17° SE 12:52:32 10° E daylight
22 Dec - 14:23:10 10° WSW 14:26:28 79° SSE 14:29:47 10° ENE daylight
22 Dec - 16:00:00 10° W 16:03:13 48° N 16:06:25 10° ENE daylight
22 Dec - 17:36:46 10° WNW 17:40:04 68° NNE 17:43:20 10° E visible
22 Dec - 19:13:32 10° W 19:16:30 31° SW 19:19:26 10° SSE visible
23 Dec - 11:59:05 10° SE 11:59:41 10° SE 12:00:17 10° ESE daylight
23 Dec - 13:32:25 10° SW 13:35:39 53° SSE 13:38:53 10° ENE daylight
23 Dec - 15:09:00 10° W 15:12:15 53° N 15:15:30 10° ENE daylight
23 Dec - 16:45:52 10° WNW 16:49:08 55° N 16:52:22 10° E daylight
23 Dec - 18:22:31 10° WNW 18:25:43 49° SSW 18:28:54 10° SE visible
24 Dec - 12:41:48 10° SSW 12:44:49 34° SE 12:47:51 10° E daylight
24 Dec - 14:17:59 10° W 14:21:16 65° NNW 14:24:34 10° ENE daylight
24 Dec - 15:54:54 10° WNW 15:58:07 48° N 16:01:20 10° E daylight
24 Dec - 17:31:33 10° WNW 17:34:50 75° SSW 17:38:07 10° ESE visible
24 Dec - 19:08:54 10° W 19:10:58 16° SW 19:13:02 10° S visible
25 Dec - 11:51:24 10° SSW 11:54:00 22° SE 11:56:37 10° E daylight
25 Dec - 13:26:57 10° WSW 13:30:16 86° NNW 13:33:35 10° ENE daylight
25 Dec - 15:03:50 10° WNW 15:07:03 47° N 15:10:16 10° ENE daylight
25 Dec - 16:40:33 10° WNW 16:43:52 78° NNE 16:47:09 10° ESE daylight
25 Dec - 18:17:26 10° W 18:20:11 25° SW 18:22:56 10° SSE visible
26 Dec - 11:01:29 10° SSE 11:03:13 14° SE 11:04:56 10° ESE daylight
26 Dec - 12:35:59 10° SW 12:39:16 66° SSE 12:42:33 10° ENE daylight
26 Dec - 14:12:42 10° W 14:15:57 50° N 14:19:10 10° ENE daylight
26 Dec - 15:49:31 10° WNW 15:52:48 60° NNE 15:56:03 10° E daylight
26 Dec - 17:26:12 10° WNW 17:29:18 39° SSW 17:32:23 10° SE visible
27 Dec - 11:45:07 10° SW 11:48:16 42° SSE 11:51:26 10° ENE daylight
27 Dec - 13:21:31 10° W 13:24:48 58° NNW 13:28:04 10° ENE daylight
27 Dec - 14:58:25 10° WNW 15:01:39 51° N 15:04:53 10° E daylight
27 Dec - 16:35:02 10° WNW 16:38:18 61° SSW 16:41:33 10° SE daylight
27 Dec - 18:12:53 10° WSW 18:14:19 12° SW 18:15:44 10° SSW visible
28 Dec - 10:54:26 10° SSW 10:57:17 27° SE 11:00:08 10° E daylight
28 Dec - 12:30:19 10° WSW 12:33:38 75° NNW 12:36:57 10° ENE daylight
28 Dec - 14:07:14 10° WNW 14:10:27 47° N 14:13:39 10° ENE daylight
28 Dec - 15:43:53 10° WNW 15:47:12 89° SSW 15:50:29 10° ESE daylight
28 Dec - 17:20:56 10° W 17:23:25 20° SW 17:25:54 10° S visible
29 Dec - 10:04:04 10° S 10:06:18 17° SE 10:08:33 10° E daylight
29 Dec - 11:39:09 10° WSW 11:42:28 80° SSE 11:45:46 10° ENE daylight
29 Dec - 13:15:57 10° W 13:19:11 48° N 13:22:24 10° ENE daylight
29 Dec - 14:52:43 10° WNW 14:56:00 68° NNE 14:59:17 10° E daylight
29 Dec - 16:29:27 10° W 16:32:25 31° SW 16:35:22 10° SSE daylight
